SL-16 DEB, 22615

Orbit data source: Space-Track

SL-16 DEB, 22615 is space debris in LEO originally from a launch on Fri, 26 Mar 1993 UTC launched from the Tyuratam Missile And Space Complex (TTMTR). Debris objects in space refer to the collection of defunct objects orbiting the Earth. Examples of debris include non-operational satellites, rocket bodies, and fragments generated from explosions, collisions, or faulty payload assembly.

Loading next visibility...
Identifier
22615, 1993-016Z
Orbit
LEO
Country
Flag of CISCIS
Related business
Manufacturer
Unknown
Mission
Spacecraft
Bus & Motor
Unknown
Mass
Unknown
Launch date (UTC)
1993-03-26 (33 years ago)
Launch vehicle
Unknown
Launch site
Tyuratam Missile And Space Complex (TTMTR)
Object type
Payload
Rocket body
Debris
Shape & HBR
Unknown shape, 0.1 m
Radar Cross Section
Small (<0.1 m²)

Expand to show TLE details & history
Last TLE update: 8 hours ago

TLE from 8 hours ago
0 SL-16 DEB
1 22615U 93016Z   26035.28308841  .00001203  00000-0  87441-3 0  9998
2 22615  71.0039 340.0494 0132951 314.7170 171.5541 13.94183024663044
Epoch: 2026-02-04T06:47Z
TLE epoch observation values (Epoch: 2026-02-04T06:47:38.838Z)
Latitude
49.58566°
Longitude
-100.03036°
Altitude
1,017.261 km
Speed
7.3 km/s
True Right ascension
09h 05m 20s
True Declination
49° 25' 18"
Sunlit
Object was in full shadow at epoch
Visualization orbit readout
Latitude
Unknown
Longitude
Unknown
Altitude
Unknown
Speed
Unknown
Apparent Right ascension
Unknown
Apparent Declination
Unknown
Sunlit
N/A
Visualization observer readout
Local Sidereal Time
17:14:03
Azimuth
Unknown
Elevation
Unknown
Doppler factor
Unknown
Orbital elements
Apogee altitude
1,008.875 km
Perigee altitude
815.03 km
Semi-major axis
7,290.09 km
Eccentricity
0.0133
Inclination
71.0039°
RAAN
340.0494°
Arg. of periapsis
314.717°
True anomaly
171.77424°
Mean anomaly
171.5541°
Eccentric anomaly
171.66453°
Mean motion
3.48694 °/min
Orbital period
103.24 mins
BSTAR
0.00087441
Loading maneuver chart data...
Computing Atmospheric mass density...
Loading historical data...
Loading historical data...
Loading historical data...
Loading historical data...
Loading historical data...
Loading historical data...
Loading historical data...

Documentation

Showing up to 5 results
|